Weather observations for the past three days for
Madera Municipal Airport
Imperial (Metric)
Date Time (pdt) Wind (mph) Vis. (mi.) Weather Sky Cond. Temperature (ºF) Relative Humidity Wind Chill (°F) Heat Index (°F) Pressure Precipitation (in)
Air Dwpt 6 hour altimeter (in) sea level (mb) 1 hr 3 hr 6 hr
Max. Min.
13 05:53 N 16 10.00 Fair CLR 88 48.9 26% 85 29.77 1007.6
13 04:53 NE 8 10.00 Fair CLR 86 54 86 77 33% 84 29.79 1008.3
13 03:53 N 14 G 29 10.00 A Few Clouds FEW110 82 57.9 44% 82 29.74 1006.5
13 02:53 Calm 10.00 Fair CLR 78.1 64 62% 80 29.77 1007.6
13 01:53 SE 3 10.00 Fair CLR 78.1 64.9 64% 80 29.75 1007.2
13 00:53 W 5 10.00 Fair CLR 81 64 57% 83 29.74 1006.7
12 23:53 W 9 10.00 Fair CLR 84.9 64.9 51% 87 29.74 1006.5
12 22:53 W 7 10.00 Fair CLR 84.9 68 108 84.9 57% 88 29.74 1006.9
12 21:53 W 5 10.00 A Few Clouds FEW110 87.1 66 50% 89 29.75 1006.9
12 20:53 N 12 10.00 Partly Cloudy SCT110 96.1 64.9 36% 99 29.71 1005.6
12 19:53 W 5 10.00 Mostly Cloudy BKN110 96.1 70 43% 103 29.74 1006.8
12 18:53 SW 10 10.00 Partly Cloudy SCT110 104 69.1 33% 112 29.73 1006.5
12 17:53 W 10 10.00 A Few Clouds FEW100 106 64 26% 110 29.73 1006.5
12 16:53 W 12 10.00 Partly Cloudy SCT100 108 62.1 109.9 95 23% 111 29.73 1006.2
12 15:53 Vrbl 5 10.00 Mostly Cloudy BKN100 108 59 20% 109 29.75 1007.1
12 14:53 W 8 10.00 Mostly Cloudy BKN100 108 59 20% 109 29.77 1007.7
12 13:53 N 6 10.00 A Few Clouds FEW120 102.9 60.1 24% 104 29.78 1008.1
12 12:53 Vrbl 7 10.00 Fair CLR 102 57 23% 101 29.8 1008.7
12 11:53 NW 6 10.00 Fair CLR 98.1 55.9 24% 97 29.81 1008.9
12 10:53 W 6 10.00 Fair CLR 95 55.9 96.1 70 27% 93 29.82 1009.3
12 09:53 NW 6 10.00 Fair CLR 91.9 54 28% 90 29.82 1009.4
12 08:53 SW 6 10.00 Fair CLR 86 61 43% 86 29.83 1009.7
12 07:53 Calm 10.00 Fair CLR 82 57.9 44% 82 29.81 1009.2
12 06:53 Calm 10.00 Fair CLR 73 60.1 64% 29.8 1008.7
12 05:53 NW 6 10.00 Fair CLR 70 59 68% 29.78 1008.1
12 04:53 NW 3 10.00 Fair CLR 73 59 84 71.1 62% 29.77 1007.7
12 03:53 W 6 10.00 Fair CLR 71.1 59 66% 29.76 1007.5
12 02:53 NW 3 10.00 Fair CLR 73.9 57.9 57% 29.76 1007.4
12 01:53 NW 6 10.00 Fair CLR 77 55.9 48% 79 29.77 1007.8
12 00:53 NW 6 10.00 Fair CLR 79 55.9 45% 80 29.78 1007.9
11 23:53 NW 6 10.00 Fair CLR 82 55.9 41% 82 29.78 1008.2
11 22:53 W 7 10.00 Fair CLR 84.9 57.9 109.9 84.9 40% 84 29.78 1008.0
11 21:53 W 8 10.00 A Few Clouds FEW110 87.1 70 57% 92 29.77 1007.9
11 20:53 W 5 10.00 Partly Cloudy SCT110 91 68 47% 95 29.76 1007.4
11 19:53 W 5 10.00 Mostly Cloudy BKN110 99 63 31% 101 29.75 1007.2
11 18:53 W 7 10.00 Mostly Cloudy BKN110 106 64 26% 110 29.75 1007.0
11 17:53 W 6 10.00 Overcast OVC100 108 62.1 23% 111 29.75 1006.9
11 16:53 W 7 10.00 Overcast OVC100 109 57.9 109.9 95 19% 109 29.76 1007.3
11 15:53 NW 5 10.00 Mostly Cloudy BKN100 109 57 18% 109 29.77 1007.9
11 14:53 NW 8 10.00 Mostly Cloudy SCT100 BKN110 109 62.1 22% 112 29.79 1008.3
11 13:53 Vrbl 5 10.00 A Few Clouds FEW100 106 62.1 24% 109 29.81 1009.0
11 12:53 SW 3 10.00 Fair CLR 100.9 62.1 28% 103 29.83 1009.8
11 11:53 W 7 10.00 Fair CLR 99 64 32% 102 29.84 1010.1
11 10:53 S 3 10.00 Fair CLR 95 64.9 95 69.1 37% 98 29.84 1010.2
11 09:53 SW 5 10.00 Fair CLR 89.1 64.9 45% 91 29.84 1010.2
11 08:53 S 3 10.00 Fair CLR 84.9 64.9 51% 87 29.84 1010.2
11 07:53 NW 3 10.00 Fair CLR 80.1 63 56% 81 29.84 1010.1
11 06:53 Calm 9.00 Fair CLR 73 63 71% 29.83 1009.8
11 05:53 W 3 7.00 Fair CLR 70 64 82% 29.81 1009.2
11 04:53 Calm 10.00 Fair CLR 73 64.9 80.1 71.1 76% 29.81 1009.0
11 03:53 W 3 10.00 Fair CLR 72 64.9 79% 29.8 1008.8
11 02:53 Calm 10.00 Fair CLR 73.9 64.9 74% 29.81 1009.0
11 01:53 Calm 10.00 Fair CLR 77 66 69% 79 29.81 1009.0
11 00:53 NW 5 10.00 Fair CLR 79 66 65% 81 29.81 1009.1
10 23:53 NW 5 10.00 Fair CLR 79 69.1 72% 82 29.81 1009.1
10 22:53 W 5 10.00 Fair CLR 80.1 70 105.1 80.1 71% 83 29.81 1009.0
10 21:53 W 3 10.00 Fair CLR 82.9 70 65% 87 29.8 1008.8
10 20:53 W 5 10.00 Partly Cloudy SCT110 87.1 66.9 51% 90 29.78 1008.2
10 19:53 W 7 10.00 Mostly Cloudy BKN110 95 66 39% 98 29.77 1007.8
10 18:53 W 6 10.00 Mostly Cloudy BKN110 102 64.9 30% 106 29.77 1007.8
10 17:53 W 8 10.00 Mostly Cloudy BKN110 104 62.1 25% 106 29.78 1007.9
10 16:53 Vrbl 7 10.00 Mostly Cloudy BKN100 104 57 105.1 88 21% 104 29.79 1008.4
10 15:53 W 7 10.00 Mostly Cloudy BKN110 102.9 60.1 24% 104 29.81 1008.9
10 14:53 NW 7 10.00 A Few Clouds FEW100 100.9 62.1 28% 103 29.82 1009.5
10 13:53 W 6 10.00 A Few Clouds FEW100 99 62.1 30% 100 29.83 1009.9
10 12:53 W 7 10.00 Fair CLR 97 64 34% 99 29.85 1010.6
10 11:53 Vrbl 6 10.00 Fair CLR 91.9 64 40% 94 29.86 1010.8
10 10:53 Vrbl 5 10.00 Fair CLR 88 64 88 64 45% 89 29.87 1011.0
10 09:53 Vrbl 5 10.00 Fair CLR 82 63 53% 83 29.87 1011.2
10 08:53 Calm 10.00 Fair CLR 77 62.1 60% 79 29.87 1011.2
10 07:53 W 6 10.00 Fair CLR 72 61 68% 29.86 1010.7
10 06:53 W 3 9.00 Fair CLR 66.9 61 81% 29.84 1010.1
Date Time (pdt) Wind (mph) Vis. (mi.) Weather Sky Cond. Air Dwpt Max. Min. Relative Humidity Wind Chill (°F) Heat Index (°F) altimeter (in) sea level (mb) 1 hr 3 hr 6 hr
6 hour
Temperature (ºF) Pressure Precipitation (in)